[[{"header":{"parameterUnit":"m.s-1","parameterCategory":1,"la1":30.2991,"la2":30.254,"lo1":-89.0895,"lo2":-89.0444,"dy":0.0017,"dx":0.0017,"nx":28,"ny":28,"refTime":"2024-06-17T03:00:00:Z","depth":0,"parameterNumber":2,"parameterNumberName":"U-component_of_WINDS"},"data":[0,0,0,0,0,0,0,0,0,0,0,0,0,0,0,0,0,0,0,0,0,0,0,0,0,0,0,0,0,0,0,0,0,0,0,0,0,0,0,0,0,0,0,0,0,0,0,0,0,0,0,0,0,0,0,0,0,0,-5.1352,-5.1352,0,-5.1415,-5.1416,-5.1417,-5.1321,-5.1317,-5.1314,-5.1311,-5.1381,-5.1386,-5.1391,0,0,0,0,0,0,0,0,0,0,0,0,0,-5.1151,-5.1155,-5.1351,-5.1352,-5.1353,-5.1415,-5.1416,-5.1417,-5.1321,-5.1317,-5.1313,-5.1309,-5.1379,-5.1385,-5.1391,0,0,0,0,0,0,0,0,0,0,0,0,0,-5.1229,-5.1157,-5.1351,-5.1313,-5.131,-5.1415,-5.1416,-5.1417,-5.1322,-5.1317,-5.1312,-5.1308,-5.1377,-5.1384,-5.1392,-5.1539,0,0,-5.1415,-5.1418,0,0,0,0,0,0,0,0,-5.1225,-5.1236,-5.1318,-5.1316,-5.1313,-5.1355,-5.1371,-5.1458,-5.1324,-5.1318,-5.1311,-5.1305,-5.1376,-5.1384,-5.1407,-5.1542,-5.1545,-5.1415,-5.142,-5.1423,-5.1425,0,0,0,0,0,0,0,-5.1219,-5.1233,-5.1377,-5.1319,-5.1316,-5.1294,-5.1299,-5.1387,-5.1375,-5.1318,-5.1311,-5.132,-5.1374,-5.14,-5.1408,-5.1546,-5.1415,-5.1422,-5.1426,-5.1429,-5.1803,-5.1808,0,0,0,0,0,0,-5.1218,-5.1229,-5.1375,-5.1379,-5.1255,-5.1301,-5.1307,-5.1346,-5.1373,-5.1373,-5.1324,-5.1315,-5.139,-5.1399,-5.141,-5.1581,-5.1423,-5.143,-5.1434,-5.1797,-5.1804,-5.181,0,0,0,0,0,0,-5.1214,-5.1232,-5.1372,-5.1302,-5.1318,-5.131,-5.1355,-5.135,-5.1376,-5.1378,-5.1376,-5.1352,-5.1386,-5.1399,-5.1506,-5.1582,-5.1433,-5.144,-5.1791,-5.1799,-5.1807,-5.1927,0,0,0,0,0,0,-5.1209,-5.1231,-5.1286,-5.1304,-5.1322,-5.1467,-5.1359,-5.1355,-5.1388,-5.1377,-5.1404,-5.1403,-5.1383,-5.1496,-5.1514,-5.159,-5.1446,-5.1784,-5.1795,-5.1804,-5.1916,-5.1938,-5.1957,0,0,0,0,0,-5.1202,-5.1319,-5.1289,-5.1307,-5.1391,-5.1472,-5.1482,-5.1455,-5.1395,-5.145,-5.1451,-5.1402,-5.1572,-5.1508,-5.1527,-5.1607,-5.1779,-5.1792,-5.1803,-5.1907,-5.1934,-5.1956,0,0,0,0,0,0,-5.1312,-5.132,-5.1288,-5.1414,-5.1442,-5.1455,-5.1524,-5.1485,-5.1532,-5.152,-5.1486,-5.1493,-5.1607,-5.1618,-5.1546,-5.1749,-5.1665,-5.1682,-5.1737,-5.1763,-5.1783,-5.1777,-5.1452,0,0,0,0,0,-5.135,-5.1414,-5.1419,-5.153,-5.1545,-5.1533,-5.1567,-5.1543,-5.1572,-5.1585,-5.1594,-5.1625,-5.1684,-5.1725,-5.178,-5.1918,-5.1921,-5.1982,-5.2003,-5.202,-5.2034,-5.2105,-5.2132,-5.185,-5.185,-5.185,0,0,-5.1431,-5.1444,-5.1487,-5.1552,-5.1571,-5.1638,-5.1544,-5.1619,-5.1669,-5.1597,-5.1696,-5.1705,-5.1738,-5.186,-5.1915,-5.1873,-5.2113,-5.2035,-5.2049,-5.2053,-5.2121,-5.2147,-5.2171,-5.1858,-5.1857,-5.1855,0,0,-5.1612,-5.1629,-5.1721,-5.1742,-5.1772,-5.1763,-5.1785,-5.1804,-5.1806,-5.1906,-5.1852,-5.1912,-5.2017,-5.2041,-5.2067,-5.2257,-5.2213,-5.2277,-5.2383,-5.2453,-5.2475,-5.2494,-5.256,-5.2584,-5.2291,-5.2292,-5.2292,0,-5.1709,-5.1807,-5.1775,-5.1853,-5.1883,-5.1819,-5.1913,-5.1935,-5.1983,-5.2005,-5.1958,-5.2086,-5.2104,-5.223,-5.2276,-5.23,-5.2324,-5.2272,-5.2474,-5.2493,-5.2511,-5.2573,-5.2598,-5.2299,-5.2298,-5.2297,-5.2297,0,-5.1923,-5.1992,-5.2064,-5.2108,-5.2146,-5.2233,-5.2214,-5.2257,-5.2231,-5.2227,-5.2329,-5.2348,-5.2405,-5.2434,-5.241,-5.2557,-5.253,-5.2479,-5.2394,-5.2546,-5.2603,-5.2627,-5.2309,-5.2307,-5.2304,-5.2303,0,0,-5.2174,-5.2199,-5.2225,-5.2244,-5.2272,-5.2325,-5.2408,-5.2462,-5.2499,-5.2534,-5.2603,-5.2692,-5.2645,-5.2675,-5.2653,-5.2715,-5.2861,-5.2657,-5.2657,-5.2692,-5.3022,-5.3058,-5.3086,-5.2834,-5.2838,-5.2842,-5.3018,0,-5.2352,-5.2493,-5.2466,-5.2604,-5.2666,-5.2607,-5.2679,-5.2705,-5.2703,-5.2757,-5.2757,-5.2819,-5.2753,-5.2771,-5.283,-5.2831,-5.2927,-5.2819,-5.2896,-5.29,-5.2887,-5.3116,-5.3155,-5.3321,-5.3041,-5.3045,-5.3048,0,-5.2578,-5.2619,-5.2762,-5.2778,-5.2803,-5.2869,-5.2915,-5.2967,-5.2995,-5.299,-5.3023,-5.299,-5.3073,-5.2988,-5.3103,-5.3029,-5.306,-5.3066,-5.3072,-5.3076,-5.2981,-5.3124,-5.3373,-5.3397,-5.3083,-5.308,-5.3078,0,-5.2743,-5.2835,-5.2931,-5.2949,-5.2971,-5.3018,-5.303,-5.3053,-5.3086,-5.3128,-5.3149,-5.3202,-5.323,-5.3271,-5.3253,-5.3193,-5.337,-5.3284,-5.3367,-5.3368,-5.3405,-5.3403,-5.366,-5.343,-5.343,-5.3429,-5.3429,0,-5.2943,-5.3033,-5.3005,-5.3064,-5.3163,-5.3132,-5.3231,-5.3236,-5.3257,-5.3317,-5.327,-5.3328,-5.3301,-5.3357,-5.3344,-5.3439,-5.3454,-5.3451,-5.3446,-5.3454,-5.3454,-5.3472,-5.3459,-5.3436,-5.3434,-5.3433,-5.3432,0,-5.3143,-5.3129,-5.323,-5.3242,-5.3247,-5.3319,-5.3329,-5.3385,-5.338,-5.3456,-5.3473,-5.3466,-5.3529,-5.3515,-5.3586,-5.3577,-5.3696,-5.3678,-5.3686,-5.368,-5.3763,-5.3755,-5.4039,-5.4074,-5.3824,-5.3826,-5.3828,0,-5.3271,-5.3337,-5.3356,-5.3391,-5.3406,-5.3464,-5.3497,-5.347,-5.3507,-5.3543,-5.3595,-5.3654,-5.3699,-5.3803,-5.3805,-5.3859,-5.384,-5.3936,-5.3848,-5.3853,-5.3839,-5.3834,-5.3839,-5.3953,-5.3956,-5.3958,-5.396,0,-5.3497,-5.3486,-5.3534,-5.3581,-5.3621,-5.3657,-5.3688,-5.3721,-5.3696,-5.374,-5.3803,-5.3838,-5.3908,-5.3967,-5.4016,-5.403,-5.3991,-5.3988,-5.401,-5.4017,-5.4017,-5.4016,-5.373,-5.3981,-5.3979,-5.3977,-5.3976,-5.3975,-5.3663,-5.3719,-5.3739,-5.3795,-5.3815,-5.3845,-5.3897,-5.3898,-5.3949,-5.4002,-5.3984,-5.4056,-5.4082,-5.4143,-5.4163,-5.4219,-5.4183,-5.4215,-5.4223,-5.423,-5.4239,-5.401,-5.4228,-5.4228,-5.4227,-5.4227,-5.4226,0,-5.3885,-5.3895,-5.3946,-5.399,-5.4033,-5.3992,-5.4024,-5.4064,-5.4126,-5.4153,-5.4197,-5.4269,-5.4326,-5.4332,-5.4386,-5.443,-5.4413,-5.4444,-5.444,-5.4443,-5.4269,-5.4244,-5.4456,-5.4456,-5.4456,-5.4456,-5.4456,-5.4456,-5.4005,-5.4096,-5.4088,-5.4188,-5.4198,-5.4266,-5.4288,-5.4315,-5.4336,-5.4417,-5.4463,-5.4466,-5.4484,-5.4538,-5.4588,-5.4589,-5.461,-5.4648,-5.4641,-5.4479,-5.4456,-5.4434,-5.4409,-5.4653,-5.4653,-5.481,-5.4811,-5.4812]},{"header":{"parameterUnit":"m.s-1","parameterCategory":1,"la1":30.2991,"la2":30.254,"lo1":-89.0895,"lo2":-89.0444,"dy":0.0017,"dx":0.0017,"nx":28,"ny":28,"refTime":"2024-06-17T03:00:00:Z","depth":0,"parameterNumber":3,"parameterNumberName":"V-component_of_WINDS"},"data":[0,0,0,0,0,0,0,0,0,0,0,0,0,0,0,0,0,0,0,0,0,0,0,0,0,0,0,0,0,0,0,0,0,0,0,0,0,0,0,0,0,0,0,0,0,0,0,0,0,0,0,0,0,0,0,0,0,0,1.5738,1.5739,0,1.579,1.5791,1.5792,1.5816,1.5816,1.5816,1.5816,1.5866,1.5867,1.5868,0,0,0,0,0,0,0,0,0,0,0,0,0,1.5657,1.5659,1.5738,1.5739,1.574,1.579,1.5791,1.5792,1.5816,1.5816,1.5816,1.5816,1.5865,1.5867,1.5868,0,0,0,0,0,0,0,0,0,0,0,0,0,1.5699,1.5659,1.5738,1.5758,1.576,1.579,1.5791,1.5792,1.5816,1.5816,1.5816,1.5816,1.5865,1.5867,1.5869,1.5881,0,0,1.5875,1.5875,0,0,0,0,0,0,0,0,1.5697,1.5702,1.5754,1.5757,1.5759,1.5797,1.5781,1.5822,1.5816,1.5795,1.5816,1.5816,1.5842,1.5846,1.5856,1.5884,1.5886,1.5875,1.5876,1.5877,1.5877,0,0,0,0,0,0,0,1.5694,1.57,1.5759,1.5755,1.5758,1.5764,1.5769,1.5789,1.5818,1.5797,1.5799,1.5805,1.5844,1.5854,1.5857,1.5886,1.5875,1.5877,1.5878,1.5879,1.5929,1.5929,0,0,0,0,0,0,1.5688,1.5697,1.5757,1.576,1.5728,1.5765,1.5772,1.5785,1.5818,1.5823,1.5805,1.5806,1.5851,1.5855,1.5859,1.5877,1.5877,1.5879,1.588,1.5929,1.5929,1.5929,0,0,0,0,0,0,1.5686,1.5693,1.5755,1.573,1.5738,1.5766,1.5781,1.5786,1.5796,1.5824,1.5829,1.581,1.5851,1.5856,1.5876,1.5879,1.588,1.5881,1.5929,1.5929,1.5929,1.5913,0,0,0,0,0,0,1.5684,1.5692,1.5698,1.573,1.5739,1.5772,1.5781,1.5787,1.58,1.5802,1.583,1.5835,1.5851,1.5873,1.5878,1.5882,1.5883,1.5929,1.5929,1.5929,1.5913,1.5913,1.5912,0,0,0,0,0,1.5681,1.569,1.5698,1.5705,1.5747,1.5772,1.5777,1.5797,1.58,1.5806,1.5824,1.5834,1.5879,1.5875,1.5881,1.5885,1.5928,1.5929,1.5929,1.5914,1.5913,1.5912,0,0,0,0,0,0,1.5656,1.5694,1.5704,1.5723,1.5745,1.5776,1.5783,1.5795,1.5815,1.5815,1.5838,1.5844,1.5862,1.5876,1.5871,1.59,1.5904,1.5906,1.5891,1.589,1.5889,1.5885,1.5885,0,0,0,0,0,1.5653,1.5671,1.5704,1.5718,1.5728,1.5754,1.5766,1.578,1.5802,1.581,1.583,1.585,1.5869,1.588,1.5899,1.5916,1.5923,1.5922,1.5921,1.5921,1.5921,1.5933,1.5933,1.593,1.593,1.593,0,0,1.5646,1.567,1.568,1.5714,1.5731,1.5749,1.5761,1.5779,1.5793,1.5812,1.5833,1.5848,1.5872,1.5891,1.5901,1.5903,1.5924,1.5921,1.592,1.5922,1.5933,1.5933,1.5934,1.5931,1.5931,1.593,0,0,1.5644,1.5663,1.5678,1.5697,1.5725,1.5742,1.5746,1.5776,1.5788,1.581,1.5825,1.5841,1.5873,1.589,1.5902,1.5909,1.5919,1.5915,1.591,1.5921,1.5921,1.5922,1.5925,1.5925,1.5915,1.5915,1.5915,0,1.5632,1.566,1.5684,1.5702,1.5717,1.5738,1.5753,1.5769,1.5801,1.581,1.5813,1.5855,1.5872,1.5896,1.5898,1.5908,1.5912,1.5911,1.592,1.592,1.5921,1.5924,1.5925,1.5915,1.5915,1.5915,1.5915,0,1.5644,1.5664,1.5673,1.5705,1.5721,1.5737,1.5763,1.5776,1.5789,1.5806,1.5829,1.5851,1.5875,1.5882,1.5894,1.5908,1.5909,1.5916,1.592,1.592,1.5923,1.5924,1.5914,1.5914,1.5914,1.5914,0,0,1.5625,1.5673,1.5676,1.5692,1.5725,1.574,1.5758,1.5784,1.5795,1.5816,1.5832,1.5859,1.5867,1.5881,1.5895,1.5905,1.591,1.5911,1.5911,1.591,1.5927,1.5922,1.5923,1.5917,1.5918,1.5918,1.5926,0,1.5627,1.5661,1.5684,1.5709,1.5728,1.575,1.5765,1.5787,1.5804,1.5822,1.5841,1.586,1.5868,1.5877,1.5888,1.5907,1.5913,1.5907,1.5931,1.5932,1.5924,1.5924,1.5918,1.5924,1.5927,1.5927,1.5927,0,1.5633,1.5657,1.5684,1.5718,1.5727,1.574,1.5767,1.5784,1.581,1.5822,1.5839,1.5855,1.5874,1.5878,1.5905,1.59,1.5911,1.5923,1.5923,1.5926,1.5929,1.5927,1.5927,1.5928,1.5929,1.5929,1.5929,0,1.5617,1.5656,1.5678,1.569,1.573,1.5739,1.5756,1.5782,1.5797,1.5819,1.5829,1.5853,1.5866,1.5884,1.5906,1.5906,1.5931,1.5936,1.5941,1.594,1.5944,1.5943,1.5946,1.5952,1.5952,1.5952,1.5952,0,1.5617,1.5632,1.5671,1.5684,1.5703,1.5729,1.5747,1.5765,1.5789,1.5805,1.5825,1.584,1.5868,1.5887,1.5904,1.5924,1.5929,1.5939,1.5943,1.5937,1.5936,1.5945,1.5944,1.5952,1.5952,1.5952,1.5952,0,1.5601,1.5627,1.5653,1.5689,1.5699,1.5711,1.5742,1.5756,1.5775,1.5796,1.5803,1.5832,1.5856,1.588,1.591,1.5921,1.5941,1.5947,1.5933,1.5935,1.5939,1.5938,1.5946,1.5949,1.5953,1.5953,1.5953,0,1.5598,1.5611,1.565,1.5664,1.5681,1.5703,1.5719,1.5745,1.5761,1.5793,1.5803,1.5828,1.5849,1.5885,1.5909,1.5933,1.5939,1.5941,1.5943,1.5937,1.5939,1.5938,1.594,1.5939,1.5939,1.5939,1.5939,0,1.5591,1.5605,1.5628,1.5656,1.5675,1.5698,1.5721,1.5731,1.5762,1.5779,1.5804,1.5821,1.5854,1.5878,1.5906,1.5922,1.5936,1.5938,1.5941,1.5934,1.5926,1.5931,1.593,1.5938,1.5938,1.5938,1.5938,1.5938,1.5582,1.5596,1.5626,1.5651,1.5673,1.5695,1.571,1.5732,1.5754,1.5784,1.5799,1.5824,1.5851,1.589,1.5906,1.5926,1.5929,1.5932,1.5933,1.5934,1.5932,1.5923,1.5931,1.5931,1.5931,1.5931,1.5931,0,1.5576,1.5598,1.5621,1.5655,1.5675,1.5689,1.5716,1.5731,1.5754,1.5779,1.5801,1.583,1.5855,1.5882,1.5908,1.5918,1.5925,1.5924,1.5923,1.5927,1.5927,1.5923,1.5919,1.5919,1.5919,1.5919,1.5919,1.5919,1.5576,1.56,1.5617,1.5652,1.5673,1.5699,1.5714,1.5734,1.5755,1.5787,1.5809,1.5827,1.5853,1.5882,1.5905,1.5912,1.5921,1.5918,1.5927,1.5926,1.5927,1.5928,1.5924,1.592,1.592,1.5925,1.5925,1.5925]}]]